Flag for Albania Weather past 2 weeks in Durrës, Albania

Now
72 °F

Clear.


Feels Like: 69 °F
Forecast: 73 / 85 °F
Wind: 2 mph from South

Location: Tirana Airport

Current Time: Aug 28, 2015 at 5:27:29 AM

Latest Report: Aug 28, 2015 at 4:50 AM


Visibility: 10 mi

Pressure: 30.04 "Hg

Humidity: 88%

Dew point: 68 °F

Location of DurrësLocation

Historic Weather in Durrës — Graph

°F

Durrës temperature yesterday

Maximum temperature yesterday: 93 °F (at 12:50 PM)
Minimum temperature yesterday: 68 °F (at 4:20 AM)
Average temperature yesterday: 80 °F

Past Weeks' High & Low Weather Summary

 TemperatureHumidityPressure
High97 °F (Aug 13, 1:20 PM)94% (Aug 13, 4:20 AM)30.04 "Hg (Aug 13, 4:20 AM)
Low61 °F (Aug 21, 6:20 AM)27% (Aug 18, 3:20 PM)29.77 "Hg (Aug 14, 4:20 PM)
Average78 °F63%29.92 "Hg
* Reported Aug 13 4:20 AM — Aug 28 4:20 AM, Durrës, Weather by CustomWeather, © 2015

Note: Actual official high and low records may vary slightly from our data, if they occured in-between our weather recording intervals... More about our weather records

Advertising

Durrës weather history for previous 24 hours

 ConditionsComfort  
Time TempWeatherWind HumidityBarometerVisibility
4:20 AM
Fri, Aug 28
72 °FClear.2 mph88%30.04 "Hg10 mi
3:50 AM73 °FClear.2 mph89%30.04 "Hg10 mi
3:20 AM73 °FClear.No wind89%30.04 "Hg10 mi
2:50 AM72 °FClear.2 mph88%30.04 "Hg10 mi
2:20 AM73 °FClear.2 mph89%30.04 "Hg10 mi
1:50 AM75 °FPassing clouds.2 mph89%30.04 "HgN/A
1:20 AM73 °FPassing clouds.2 mph89%30.04 "HgN/A
12:50 AM75 °FPassing clouds.3 mph83%30.04 "HgN/A
12:20 AM75 °FPassing clouds.5 mph83%30.04 "HgN/A
11:50 PM
Thu, Aug 27
75 °FPassing clouds.3 mph83%30.04 "HgN/A
11:20 PM77 °FPassing clouds.3 mph83%30.04 "HgN/A
10:50 PM77 °FClear.3 mph89%30.04 "Hg10 mi
10:20 PM77 °FPassing clouds.3 mph83%30.04 "HgN/A
9:50 PM77 °FPassing clouds.No wind83%30.04 "HgN/A
9:20 PM79 °FPassing clouds.No wind84%30.04 "HgN/A
8:50 PM79 °FClear.3 mph84%30.04 "Hg10 mi
8:20 PM79 °FSunny.2 mph79%30.01 "Hg10 mi
7:50 PM79 °FSunny.3 mph74%30.01 "Hg10 mi
7:20 PM81 °FSunny.7 mph70%30.01 "Hg10 mi
6:50 PM81 °FSunny.7 mph62%29.98 "Hg10 mi
6:20 PM82 °FSunny.9 mph55%29.98 "Hg10 mi
5:50 PM86 °FSunny.9 mph55%29.98 "Hg10 mi
5:20 PM88 °FSunny.9 mph55%29.98 "Hg10 mi
4:50 PM90 °FPassing clouds.9 mph52%29.98 "HgN/A
4:20 PM91 °FPassing clouds.8 mph41%29.98 "HgN/A
3:50 PM91 °FPassing clouds.8 mph44%30.01 "HgN/A
3:20 PM91 °FPassing clouds.9 mph44%30.01 "HgN/A
2:50 PM91 °FPassing clouds.8 mph46%30.01 "HgN/A
2:20 PM91 °FScattered clouds.8 mph46%30.01 "HgN/A
1:50 PM91 °FScattered clouds.8 mph49%30.01 "HgN/A
1:20 PM90 °FPassing clouds.8 mph46%30.01 "HgN/A
12:50 PM93 °FPassing clouds.2 mph34%30.01 "HgN/A
12:20 PM91 °FPassing clouds.2 mph36%30.01 "HgN/A
11:20 AM91 °FSunny.No wind38%30.04 "Hg10 mi
10:50 AM90 °FSunny.No wind46%30.04 "Hg10 mi
10:20 AM86 °FSunny.2 mph49%30.04 "Hg10 mi
9:50 AM86 °FSunny.No wind49%30.04 "Hg10 mi
9:20 AM81 °FSunny.2 mph54%30.04 "Hg10 mi
8:50 AM79 °FSunny.No wind61%30.04 "Hg10 mi
8:20 AM77 °FSunny.2 mph69%30.04 "Hg10 mi
7:50 AM73 °FSunny.2 mph78%30.01 "Hg10 mi
7:20 AM72 °FSunny.3 mph83%30.01 "Hg10 mi
6:50 AM70 °FClear.2 mph83%30.01 "Hg10 mi
6:20 AM70 °FClear.2 mph83%30.01 "Hg10 mi
5:50 AM70 °FClear.5 mph83%30.01 "Hg10 mi
5:20 AM70 °FClear.3 mph83%30.01 "Hg10 mi
Weather by CustomWeather, © 2015

See weather overviewHow to use our weather pages